Weather History for Falls City, NE

Change the Weather History Date:

Saturday, January 19, 2013

  Actual Average Record
Temperature  
Mean Temperature 47 °F -  
Max Temperature 60 °F 36 °F 60 °F (1951)
Min Temperature 30 °F 15 °F -8 °F (1984)
Degree Days  
Heating Degree Days 18    
Moisture  
Dew Point 28 °F    
Average Humidity 58    
Maximum Humidity 79    
Minimum Humidity 26    
Precipitation  
Precipitation 0.00 in - - ()
Sea Level Pressure  
Sea Level Pressure 30.05 in    
Wind  
Wind Speed 10 mph (WNW)    
Max Wind Speed 20 mph    
Max Gust Speed 30 mph    
Visibility 10 miles    
Events      
Averages and records for this station are not official NWS values.
T = Trace of Precipitation, MM = Missing Value Source: NWS Daily Summary

Daily Weather History Graph

Daily Weather History Graph

Search for Another Location

Airport:

Trip Planner

Search our weather history database for the weather conditions in past years. The results will help you decide how hot, cold, wet, or windy it might be!

Date:

Astronomy

Jan. 19, 2013 Rise Set
Actual Time 7:40 AM CST 5:26 PM CST
Civil Twilight 7:11 AM CST 5:55 PM CST
Nautical Twilight 6:37 AM CST 6:28 PM CST
Astronomical Twilight 6:05 AM CST 7:01 PM CST
Moon 11:53 AM CST (1/19) 1:15 AM CST (1/19)
Length of Visible Light 10h 44m
Length of Day
9h 45m
First Quarter, 57% of the Moon is Illuminated
Jan 19
First Quarter
Jan 26
Full
Feb 3
Last Quarter
Feb 10
New
Feb 17
First Quarter

Hourly Weather History & Observations

Time (CST) Temp. Windchill Dew Point Humidity Pressure Visibility Wind Dir Wind Speed Gust Speed Precip Events Conditions
12:53 AM 43.0 °F 36.4 °F 30.9 °F 62% 29.94 in 10.0 mi SW 12.7 mph - N/A   Clear
1:53 AM 42.1 °F 36.6 °F 30.9 °F 65% 29.94 in 10.0 mi SW 9.2 mph - N/A   Clear
2:53 AM 39.9 °F 32.5 °F 30.9 °F 70% 29.93 in 10.0 mi SW 12.7 mph - N/A   Clear
3:53 AM 39.0 °F 31.8 °F 30.0 °F 70% 29.91 in 10.0 mi SW 11.5 mph - N/A   Clear
4:53 AM 37.0 °F - 30.0 °F 76% 29.92 in 10.0 mi Calm Calm - N/A   Clear
5:53 AM 36.0 °F 32.1 °F 28.9 °F 76% 29.93 in 10.0 mi SSW 4.6 mph - N/A   Clear
6:53 AM 35.1 °F 31.0 °F 28.9 °F 78% 29.93 in 10.0 mi WSW 4.6 mph - N/A   Clear
7:53 AM 34.0 °F 28.0 °F 28.0 °F 79% 29.94 in 10.0 mi SW 6.9 mph - N/A   Clear
8:53 AM 37.0 °F 31.6 °F 30.0 °F 76% 29.98 in 10.0 mi West 6.9 mph - N/A   Clear
9:53 AM 41.0 °F 34.3 °F 28.9 °F 62% 30.01 in 10.0 mi WNW 11.5 mph - N/A   Clear
10:53 AM 46.0 °F 40.6 °F 28.9 °F 51% 30.03 in 10.0 mi WNW 11.5 mph - N/A   Clear
11:53 AM 55.9 °F - 27.0 °F 33% 30.00 in 10.0 mi NW 12.7 mph 18.4 mph N/A   Clear
12:53 PM 59.0 °F - 27.0 °F 29% 29.99 in 10.0 mi WNW 12.7 mph 23.0 mph N/A   Clear
1:53 PM 60.1 °F - 25.0 °F 26% 29.98 in 10.0 mi NW 19.6 mph 29.9 mph N/A   Clear
2:53 PM 57.9 °F - 27.0 °F 31% 30.01 in 10.0 mi NNW 19.6 mph 27.6 mph N/A   Clear
3:53 PM 55.9 °F - 28.0 °F 34% 30.05 in 10.0 mi NW 12.7 mph 21.9 mph N/A   Clear
4:53 PM 53.1 °F - 28.0 °F 38% 30.08 in 10.0 mi NW 13.8 mph 19.6 mph N/A   Clear
5:53 PM 48.0 °F - 28.0 °F 46% 30.13 in 10.0 mi NNW 9.2 mph - N/A   Clear
6:53 PM 41.0 °F 38.0 °F 27.0 °F 57% 30.17 in 10.0 mi NW 4.6 mph - N/A   Clear
7:53 PM 41.0 °F 36.4 °F 28.0 °F 60% 30.20 in 10.0 mi NW 6.9 mph - N/A   Clear
8:53 PM 37.9 °F 32.7 °F 27.0 °F 65% 30.24 in 10.0 mi NW 6.9 mph - N/A   Clear
9:53 PM 37.0 °F 31.6 °F 26.1 °F 65% 30.26 in 10.0 mi NNW 6.9 mph - N/A   Clear
10:53 PM 36.0 °F 27.1 °F 28.0 °F 73% 30.28 in 10.0 mi North 13.8 mph 20.7 mph N/A   Clear
11:53 PM 30.9 °F 25.2 °F 23.0 °F 72% 30.32 in 10.0 mi NNW 5.8 mph - N/A   Clear